When you browse on this site, cookies collect data to enhance your experience and personalize the content and advertising you see.
Visit our Privacy Policy to learn more. By continuing to use the site, you agree to this use of cookies and data.
  • In Schweiz
  • Länderverzeichnis
  • Für 7 Tage
  • Wassertemperatur
  • Satellitenkarten
  • Wetterkarte
  • Widgets
  • user-avatar
    Anmelden

    Stündliche Wetter Takeo

    Heute, 10 Dezember, Montag

    Zeit Temperatur Niederschläge Wind Luftdruck Luftfeuchtigkeit
    00:00 +28°C° 0 mm 1 m/S 757 mmHg 77%
    01:00 +28°C° 0 mm 1 m/S 757 mmHg 80%
    02:00 +28°C° 0.1 mm 1 m/S 756 mmHg 82%
    03:00 +27°C° 0.1 mm 1 m/S 756 mmHg 83%
    04:00 +27°C° 0.1 mm 1 m/S 756 mmHg 84%
    05:00 +27°C° 0 mm 1 m/S 756 mmHg 84%
    06:00 +27°C° 0 mm 1 m/S 757 mmHg 84%
    07:00 +28°C° 0 mm 1 m/S 757 mmHg 83%
    08:00 +29°C° 0 mm 2 m/S 757 mmHg 77%
    09:00 +30°C° 0 mm 2 m/S 757 mmHg 72%
    10:00 +32°C° 0 mm 2 m/S 757 mmHg 66%
    11:00 +34°C° 0 mm 2 m/S 757 mmHg 63%
    12:00 +34°C° 0 mm 2 m/S 757 mmHg 59%
    13:00 +35°C° 0 mm 2 m/S 756 mmHg 56%
    14:00 +35°C° 0 mm 2 m/S 756 mmHg 56%
    15:00 +35°C° 0 mm 2 m/S 755 mmHg 57%
    16:00 +34°C° 0 mm 1 m/S 755 mmHg 57%
    17:00 +34°C° 0.1 mm 2 m/S 755 mmHg 62%
    18:00 +32°C° 0.1 mm 2 m/S 756 mmHg 67%
    19:00 +30°C° 0.1 mm 2 m/S 756 mmHg 72%
    20:00 +30°C° 0.1 mm 2 m/S 756 mmHg 74%
    21:00 +29°C° 0.1 mm 1 m/S 757 mmHg 76%
    22:00 +29°C° 0.1 mm 1 m/S 757 mmHg 78%
    23:00 +28°C° 0 mm 1 m/S 757 mmHg 79%

    Morgen, 11 Dezember, Dienstag

    Zeit Temperatur Niederschläge Wind Luftdruck Luftfeuchtigkeit
    00:00 +28°C° 0 mm 1 m/S 757 mmHg 80%
    01:00 +28°C° 0 mm 1 m/S 757 mmHg 81%
    02:00 +28°C° 0 mm 1 m/S 757 mmHg 82%
    03:00 +27°C° 0 mm 1 m/S 757 mmHg 83%
    04:00 +25°C° 0 mm 0 m/S 757 mmHg 84%
    05:00 +25°C° 0 mm 0 m/S 757 mmHg 84%
    06:00 +27°C° 0 mm 1 m/S 757 mmHg 84%
    07:00 +27°C° 0 mm 1 m/S 757 mmHg 83%
    08:00 +29°C° 0 mm 1 m/S 757 mmHg 78%
    09:00 +30°C° 0 mm 2 m/S 758 mmHg 72%
    10:00 +31°C° 0 mm 2 m/S 758 mmHg 67%
    11:00 +32°C° 0 mm 2 m/S 758 mmHg 64%
    12:00 +34°C° 0 mm 2 m/S 757 mmHg 62%
    13:00 +34°C° 0 mm 2 m/S 757 mmHg 60%
    14:00 +34°C° 0.1 mm 2 m/S 756 mmHg 60%
    15:00 +34°C° 0.1 mm 2 m/S 756 mmHg 59%
    16:00 +35°C° 0.1 mm 2 m/S 755 mmHg 59%
    17:00 +32°C° 0.1 mm 1 m/S 756 mmHg 63%
    18:00 +31°C° 0.1 mm 1 m/S 756 mmHg 67%
    19:00 +30°C° 0.1 mm 1 m/S 756 mmHg 71%
    20:00 +30°C° 0.3 mm 1 m/S 757 mmHg 73%
    21:00 +29°C° 0.3 mm 1 m/S 757 mmHg 75%
    22:00 +29°C° 0.3 mm 1 m/S 758 mmHg 77%
    23:00 +28°C° 0.1 mm 1 m/S 758 mmHg 79%

    übermorgen, 12 Dezember, Mittwoch

    Zeit Temperatur Niederschläge Wind Luftdruck Luftfeuchtigkeit
    00:00 +28°C° 0.1 mm 1 m/S 758 mmHg 81%
    01:00 +27°C° 0.1 mm 1 m/S 758 mmHg 82%
    02:00 +27°C° 0 mm 1 m/S 757 mmHg 83%
    03:00 +27°C° 0 mm 1 m/S 757 mmHg 84%
    04:00 +27°C° 0 mm 1 m/S 756 mmHg 85%
    05:00 +27°C° 0 mm 1 m/S 757 mmHg 85%
    06:00 +27°C° 0 mm 2 m/S 757 mmHg 85%
    07:00 +27°C° 0 mm 2 m/S 758 mmHg 86%
    08:00 +28°C° 0 mm 3 m/S 758 mmHg 78%
    09:00 +30°C° 0 mm 3 m/S 758 mmHg 71%
    10:00 +32°C° 0 mm 4 m/S 759 mmHg 64%
    11:00 +33°C° 0 mm 4 m/S 758 mmHg 60%
    12:00 +34°C° 0 mm 4 m/S 758 mmHg 56%
    13:00 +35°C° 0 mm 4 m/S 757 mmHg 51%
    14:00 +35°C° 0 mm 3 m/S 756 mmHg 52%
    15:00 +35°C° 0 mm 3 m/S 756 mmHg 52%
    16:00 +35°C° 0 mm 2 m/S 755 mmHg 53%
    17:00 +34°C° 0 mm 2 m/S 756 mmHg 56%
    18:00 +32°C° 0 mm 2 m/S 756 mmHg 58%
    19:00 +31°C° 0 mm 1 m/S 757 mmHg 61%
    20:00 +30°C° 0.3 mm 1 m/S 757 mmHg 65%
    21:00 +29°C° 0.3 mm 1 m/S 758 mmHg 69%
    22:00 +29°C° 0.3 mm 2 m/S 758 mmHg 73%
    23:00 +28°C° 0.4 mm 1 m/S 758 mmHg 75%

    13 Dezember, Donnerstag

    Zeit Temperatur Niederschläge Wind Luftdruck Luftfeuchtigkeit
    00:00 +28°C° 0.4 mm 1 m/S 758 mmHg 78%
    01:00 +28°C° 0.4 mm 1 m/S 758 mmHg 80%
    02:00 +27°C° 0 mm 1 m/S 758 mmHg 81%
    03:00 +26°C° 0 mm 2 m/S 758 mmHg 82%
    04:00 +26°C° 0 mm 2 m/S 757 mmHg 82%
    05:00 +26°C° 0 mm 3 m/S 758 mmHg 82%
    06:00 +26°C° 0 mm 3 m/S 758 mmHg 81%
    07:00 +26°C° 0 mm 3 m/S 759 mmHg 80%
    08:00 +27°C° 0 mm 4 m/S 759 mmHg 73%
    09:00 +29°C° 0 mm 4 m/S 759 mmHg 67%
    10:00 +32°C° 0 mm 5 m/S 760 mmHg 60%
    11:00 +33°C° 0 mm 5 m/S 759 mmHg 57%
    12:00 +34°C° 0 mm 5 m/S 758 mmHg 54%
    13:00 +35°C° 0 mm 5 m/S 757 mmHg 52%
    14:00 +35°C° 0 mm 5 m/S 757 mmHg 52%
    15:00 +35°C° 0 mm 4 m/S 756 mmHg 52%
    16:00 +35°C° 0 mm 4 m/S 755 mmHg 53%
    17:00 +34°C° 0.1 mm 3 m/S 756 mmHg 56%
    18:00 +33°C° 0.1 mm 3 m/S 757 mmHg 60%
    19:00 +31°C° 0.1 mm 2 m/S 757 mmHg 63%
    20:00 +30°C° 0.1 mm 2 m/S 758 mmHg 65%
    21:00 +30°C° 0.1 mm 2 m/S 758 mmHg 67%
    22:00 +29°C° 0.1 mm 2 m/S 759 mmHg 69%
    23:00 +28°C° 0 mm 2 m/S 759 mmHg 71%

    14 Dezember, Freitag

    Zeit Temperatur Niederschläge Wind Luftdruck Luftfeuchtigkeit
    00:00 +28°C° 0 mm 2 m/S 758 mmHg 74%
    01:00 +27°C° 0 mm 2 m/S 758 mmHg 76%
    02:00 +27°C° 0 mm 2 m/S 758 mmHg 77%
    03:00 +26°C° 0 mm 2 m/S 758 mmHg 79%
    04:00 +26°C° 0 mm 2 m/S 757 mmHg 80%
    05:00 +26°C° 0 mm 2 m/S 758 mmHg 81%
    06:00 +26°C° 0 mm 2 m/S 759 mmHg 82%
    07:00 +26°C° 0 mm 2 m/S 759 mmHg 82%
    08:00 +27°C° 0 mm 3 m/S 759 mmHg 76%
    09:00 +29°C° 0 mm 4 m/S 760 mmHg 69%
    10:00 +32°C° 0 mm 5 m/S 760 mmHg 62%
    11:00 +33°C° 0 mm 5 m/S 759 mmHg 58%
    12:00 +34°C° 0 mm 5 m/S 758 mmHg 54%
    13:00 +35°C° 0 mm 5 m/S 757 mmHg 50%
    14:00 +35°C° 0 mm 4 m/S 757 mmHg 52%
    15:00 +35°C° 0 mm 4 m/S 756 mmHg 53%
    16:00 +35°C° 0 mm 3 m/S 756 mmHg 55%
    17:00 +34°C° 0 mm 3 m/S 756 mmHg 58%
    18:00 +32°C° 0 mm 2 m/S 757 mmHg 62%
    19:00 +30°C° 0 mm 1 m/S 757 mmHg 65%
    20:00 +30°C° 0.3 mm 2 m/S 758 mmHg 68%
    21:00 +29°C° 0.3 mm 2 m/S 758 mmHg 71%
    22:00 +29°C° 0.3 mm 2 m/S 758 mmHg 74%
    23:00 +28°C° 0 mm 2 m/S 758 mmHg 76%

    15 Dezember, Samstag

    Zeit Temperatur Niederschläge Wind Luftdruck Luftfeuchtigkeit
    00:00 +28°C° 0 mm 2 m/S 758 mmHg 78%
    01:00 +27°C° 0 mm 2 m/S 758 mmHg 80%
    02:00 +27°C° 0 mm 2 m/S 758 mmHg 81%
    03:00 +26°C° 0 mm 2 m/S 757 mmHg 82%
    04:00 +26°C° 0 mm 2 m/S 757 mmHg 83%
    05:00 +26°C° 0 mm 2 m/S 758 mmHg 83%
    06:00 +26°C° 0 mm 2 m/S 758 mmHg 83%
    07:00 +26°C° 0 mm 2 m/S 759 mmHg 83%
    08:00 +28°C° 0 mm 3 m/S 759 mmHg 76%
    09:00 +30°C° 0 mm 4 m/S 759 mmHg 69%
    10:00 +33°C° 0 mm 4 m/S 759 mmHg 63%
    11:00 +33°C° 0.1 mm 5 m/S 759 mmHg 60%
    12:00 +34°C° 0.1 mm 5 m/S 758 mmHg 56%
    13:00 +35°C° 0.1 mm 5 m/S 757 mmHg 53%
    14:00 +35°C° 0.1 mm 5 m/S 757 mmHg 55%
    15:00 +35°C° 0.1 mm 5 m/S 756 mmHg 57%
    16:00 +34°C° 0.1 mm 4 m/S 756 mmHg 58%
    17:00 +33°C° 0 mm 4 m/S 756 mmHg 62%
    18:00 +31°C° 0 mm 3 m/S 757 mmHg 65%
    19:00 +30°C° 0 mm 2 m/S 757 mmHg 69%
    20:00 +29°C° 0 mm 2 m/S 758 mmHg 69%
    21:00 +29°C° 0 mm 3 m/S 758 mmHg 69%
    22:00 +29°C° 0 mm 3 m/S 758 mmHg 69%
    23:00 +28°C° 0 mm 3 m/S 758 mmHg 70%
    Mehr zeigen